Simultaneous Nadir Overpasses (SNOs) Predictions

Prediction of SNOs between AQUA and METOP-B Satellite Orbit:

Table of predicted SNOs for the next 14.0 days since TLE Epoch: 12/5/2014
Index Date (AQUA) Time (AQUA) Lat,Lon (AQUA) SZA (AQUA ) Date (METOP-B) Time (METOP-B) Lat,Lon (METOP-B) SZA (METOP-B ) Distance(km) Time Diff (sec)
1 12/06/2014 15:12:28 73.69, -53.61 96.15 12/06/2014 15:11:52 73.69, -53.72 96.16 3.62 36
2 12/06/2014 16:01:55 -73.77, 113.87 83.77 12/06/2014 16:02:33 -73.76, 113.76 83.78 3.63 38
3 12/09/2014 10:46:48 73.74, 12.71 96.51 12/09/2014 10:46:14 73.75, 12.83 96.52 3.60 34
4 12/09/2014 11:36:14 -73.76,-179.69 83.47 12/09/2014 11:36:56 -73.77,-179.80 83.46 3.54 42
5 12/12/2014 06:21:06 73.72, 79.18 96.74 12/12/2014 06:20:37 73.74, 79.21 96.75 1.86 29
6 12/12/2014 07:10:33 -73.79,-113.33 83.19 12/12/2014 07:11:18 -73.81,-113.29 83.18 2.41 45
7 12/15/2014 01:55:23 73.74, 145.57 96.94 12/15/2014 01:54:58 73.76, 145.68 96.96 3.58 25
8 12/15/2014 02:44:50 -73.81, -46.93 82.99 12/15/2014 02:45:40 -73.78, -46.94 83.02 2.77 50
9 12/17/2014 20:40:01 -73.14, 45.64 83.56 12/17/2014 20:38:54 -73.11, 43.28 83.53 76.25 67
10 12/17/2014 21:29:40 73.75,-148.01 97.08 12/17/2014 21:29:20 73.76,-147.91 97.09 3.22 20
11 12/17/2014 22:19:07 -73.81, 19.50 82.86 12/17/2014 22:20:02 -73.78, 19.48 82.89 2.81 55




NCC Satellite Simultaneous Nadir Overpasses (SNOs) Prediction Service
